Regional Weather Roundup
Issued by NWS

Home | Current Version | Previous Version | Text Only | Print | Product List | Glossary Off
Versions: 1 2 3 4 5 6 7 8 9 10 11 12 13 14 15 16 17 18 19 20 21 22 23 24 25 26 27 28 29 30 31 32 33 34 35 36 37 38 39 40 41 42 43 44 45 46 47 48 49 50

000
ASUS43 KLOT 050402
RWRIL

ILLINOIS REGIONAL WEATHER ROUNDUP
NATIONAL WEATHER SERVICE CHICAGO/ROMEOVILLE IL
1100 PM CDT MON MAY 04 2015

NOTE: "FAIR" INDICATES FEW OR NO CLOUDS BELOW 12,000 FEET WITH NO
SIGNIFICANT WEATHER AND/OR OBSTRUCTIONS TO VISIBILITY.

* THESE STATIONS ARE NOT UNDER NWS QUALITY CONTROL. THEY ALSO MAY NOT
  REPORT WEATHER SUCH AS PRECIPITATION OR FOG.

ILZ001-002-007-009-015-016-024-050500-
NORTHWEST ILLINOIS

CITY           SKY/WX    TMP DP  RH WIND       PRES   REMARKS
MOLINE         RAIN      65  62  90 E8        30.10S FOG
STERLING*      CLOUDY    61  55  82 E15       30.15R
$$

ILZ003-004-008-010-011-017-018-050500-
NORTH CENTRAL ILLINOIS

CITY           SKY/WX    TMP DP  RH WIND       PRES   REMARKS
ROCKFORD       CLOUDY    60  36  40 E10       30.17R
$$

ILZ005-006-012>014-019>023-050500-
NORTHEAST ILLINOIS

CITY           SKY/WX    TMP DP  RH WIND       PRES   REMARKS
CHICAGO-OHARE  CLOUDY    56  37  49 NE7       30.17F
CHICAGO-MIDWAY MOCLDY    59  39  47 NE8       30.17F
AURORA         CLOUDY    59  43  55 E12       30.16F
WAUKEGAN       CLEAR     48  38  68 N5        30.19F
DUPAGE AIRPORT CLOUDY    57  38  48 E9        30.16F
WHEELING       MOCLDY    53  37  54 NE6       30.20F
NORTHERLY ISL    N/A     53  38  56 N6          N/A
$$

LMZ740>746-050500-
SOUTHERN LAKE MICHIGAN

STATION/POSITION SKY/WX   TEMP    WIND        PRES    VSBY  WAVE
                          AIR SEA DIR/SP/G                  HT/PER
                          (F)     (DEG/KT/KT) (MB)    (MI)  (FT/S)
HARRISON CRIB              49     350/  7/  7   N/A
BURNHAM HARBOR             53     350/  5/  8   N/A
CALUMET HARBOR             49     350/  3/  4   N/A
BURNS HARBOR               53      70/  9/ 10 1022.4S
MICHIGAN CITY              53      30/  9/ 10   N/A
MICHIGAN CITY 6N           51 50   60/  6/  6   N/A           1
ST. JOSEPH                 52 49   80/  2/  4   N/A           1
$$

ILZ025>027-034>036-040-047-049-050-058-095>099-050500-
WEST-CENTRAL ILLINOIS

CITY           SKY/WX    TMP DP  RH WIND       PRES   REMARKS
QUINCY         CLOUDY    70  61  73 E8        30.08S
$$

ILZ028>032-037-038-041>044-048-051>054-059>061-050500-
CENTRAL ILLINOIS

CITY           SKY/WX    TMP DP  RH WIND       PRES   REMARKS
DECATUR        CLOUDY    68  64  87 N5        30.12R
PEORIA         CLOUDY    68  64  87 E7        30.10F FOG
SPRINGFIELD    CLOUDY    70  62  76 E8        30.10S
TAYLORVILLE    NOT AVBL
$$

ILZ033-039-045-046-055>057-062-063-050500-
EAST-CENTRAL ILLINOIS

CITY           SKY/WX    TMP DP  RH WIND       PRES   REMARKS
CHAMPAIGN      CLOUDY    65  60  84 E9        30.13S
MATTOON        MOCLDY    70  56  61 S9        30.12S
$$

ILZ079-100>102-050500-
SOUTHWEST ILLINOIS

CITY           SKY/WX    TMP DP  RH WIND       PRES   REMARKS
BELLEVILLE     CLEAR     68  57  68 SE6       30.11R
CAHOKIA*       FAIR      73  55  53 S6        30.10S
$$

ILZ064>066-069>071-074>076-080>082-084>086-088>090-092>094-050500-
SOUTH-CENTRAL ILLINOIS

CITY           SKY/WX    TMP DP  RH WIND       PRES   REMARKS
CARBONDALE     CLEAR     65  54  67 S3        30.16R
MT. VERNON     PTCLDY   N/A N/A N/A S7        30.16S
$$

ILZ067-068-072-073-078-083-087-091-050500-
SOUTHEAST ILLINOIS

CITY           SKY/WX    TMP DP  RH WIND       PRES   REMARKS
LAWRENCEVILLE  CLEAR     66  56  70 S9        30.16R
$$

ABBREVIATIONS USED IN REMARKS
   TC - TEMPERATURE IN CELSIUS
  WCI - WIND CHILL INDEX
   HX - HEAT INDEX
  VSB - VISIBILITY
$$



USA.gov is the U.S. government's official web portal to all federal, state and local government web resources and services.